Regional Weather Roundup
Issued by NWS

Home | Current Version | Previous Version | Graphics & Text | Print | Product List | Glossary On
Versions: 1 2 3 4 5 6 7 8 9 10 11 12 13 14 15 16 17 18 19 20 21 22 23 24 25 26 27 28 29 30 31 32 33 34 35 36 37 38 39 40 41 42 43 44 45 46 47 48 49 50
368
ASUS43 KLOT 250809
RWRIL

ILLINOIS REGIONAL WEATHER ROUNDUP
NATIONAL WEATHER SERVICE CHICAGO/ROMEOVILLE IL
300 AM CDT THU MAY 25 2017

NOTE: "FAIR" INDICATES FEW OR NO CLOUDS BELOW 12,000 FEET WITH NO
SIGNIFICANT WEATHER AND/OR OBSTRUCTIONS TO VISIBILITY.

* THESE STATIONS ARE NOT UNDER NWS QUALITY CONTROL. THEY ALSO MAY NOT
  REPORT WEATHER SUCH AS PRECIPITATION OR FOG.

ILZ001-002-007-009-015-016-024-250900-
NORTHWEST ILLINOIS

CITY           SKY/WX    TMP DP  RH WIND       PRES   REMARKS
MOLINE         PTCLDY    54  49  83 NW5       29.64R
STERLING*      CLOUDY    54  51  90 N10       29.61F
SAVANNA*       MOCLDY    53  49  86 N5        29.63S
$$

ILZ003-004-008-010-011-017-018-250900-
NORTH CENTRAL ILLINOIS

CITY           SKY/WX    TMP DP  RH WIND       PRES   REMARKS
ROCKFORD       CLOUDY    55  51  86 N12       29.62F
FREEPORT*      CLOUDY    53  49  88 N8        29.64S
ROCHELLE*      CLOUDY    53  51  92 N12       29.60F
DE KALB*       CLOUDY    53  51  92 N15G21    29.59S
PERU*          CLOUDY    54  50  87 N15G21    29.60R
$$

ILZ005-006-012>014-019>023-250900-
NORTHEAST ILLINOIS

CITY           SKY/WX    TMP DP  RH WIND       PRES   REMARKS
CHICAGO-OHARE  PTCLDY    55  50  83 N12       29.53F
CHICAGO-MIDWAY MOCLDY    55  51  86 N10       29.53S
AURORA         CLOUDY    55  52  89 N13       29.56S
LANSING*       CLOUDY    53  52  96 N7        29.52F
JOLIET*        CLOUDY    56  53  90 N7        29.54S
WAUKEGAN       MOCLDY    53  51  93 N6        29.55F
DUPAGE AIRPORT PTCLDY    53  52  96 N13       29.54F
KANKAKEE*      CLOUDY    54  53  95 NW8       29.52S
WHEELING       PTCLDY    53  52  96 N10       29.55F
MORRIS*        CLOUDY    55  52  90 N6        29.53F
ROMEOVILLE*    CLOUDY    54  53  97 N10       29.54S
NORTHERLY ISL    N/A     55  49  80 N15         N/A
$$

LMZ740>746-250900-
SOUTHERN LAKE MICHIGAN

STATION/POSITION SKY/WX   TEMP    WIND        PRES    VSBY  WAVE
                          AIR SEA DIR/SP/G                  HT/PER
                          (F)     (DEG/KT/KT) (MB)    (MI)  (FT/S)
SOUTHERN BUOY              47 45  360/ 12/ 14 1000.3          3/ 6
WILMETTE HARBOR            49 51                N/A           6/ 5
HARRISON CRIB              52     340/ 25/ 27   N/A
BURNHAM HARBOR             54     340/ 15/ 18   N/A
CALUMET HARBOR             53     320/ 14/ 20  999.5F
BURNS HARBOR               49     340/ 18/ 22  999.3F
MICHIGAN CITY              51     340/ 20/ 22   N/A
MICHIGAN CITY 6N           50 52  340/ 16/ 21   N/A           5/ 6
ST. JOSEPH                 56 56   40/ 16/ 17  998.6          5/ 6
$$

ILZ025>027-034>036-040-047-049-050-058-095>099-250900-
WEST-CENTRAL ILLINOIS

CITY           SKY/WX    TMP DP  RH WIND       PRES   REMARKS
QUINCY         CLEAR     51  49  92 NW6       29.64S
GALESBURG*     CLEAR     51  49  93 NW5       29.63R
MACOMB*        CLEAR     51  50  97 NW7       29.66R
JACKSONVILLE*  CLEAR     52  51  95 NW7       29.63R
PITTSFIELD*    CLEAR     53  52  95 NW3       29.65S
$$

ILZ028>032-037-038-041>044-048-051>054-059>061-250900-
CENTRAL ILLINOIS

CITY           SKY/WX    TMP DP  RH WIND       PRES   REMARKS
PONTIAC        CLOUDY    55  55  98 NW16      29.56S
DECATUR        CLOUDY    57  53  86 NW13G23   29.56S
PEORIA         MOCLDY    54  52  93 N7        29.60S
LACON*         CLOUDY    54  51  90 N6        29.59S
LINCOLN*       CLOUDY    56  55  94 NW6       29.59R
SPRINGFIELD    CLOUDY    57  54  89 NW13      29.60R
TAYLORVILLE    CLOUDY    56  53  91 NW12      29.58S
$$

ILZ033-039-045-046-055>057-062-063-250900-
EAST-CENTRAL ILLINOIS

CITY           SKY/WX    TMP DP  RH WIND       PRES   REMARKS
CHAMPAIGN      CLOUDY    56  52  86 N13       29.53S
RANTOUL*       CLOUDY    56  55  94 NW12      29.52S
MATTOON        CLOUDY    57  56  96 NW13      29.52F
PARIS*         CLOUDY    56  54  94 NW12G18   29.50F
$$

ILZ079-100>102-250900-
SOUTHWEST ILLINOIS

CITY           SKY/WX    TMP DP  RH WIND       PRES   REMARKS
ALTON          CLOUDY    54  52  93 W8        29.63R
BELLEVILLE     PTCLDY    55  52  90 W7        29.63R
CAHOKIA*       CLEAR     56  51  84 NW7       29.63R
SPARTA*        CLEAR     53  50  91 W5        29.63R
$$

ILZ064>066-069>071-074>076-080>082-084>086-088>090-092>094-250900-
SOUTH-CENTRAL ILLINOIS

CITY           SKY/WX    TMP DP  RH WIND       PRES   REMARKS
CARBONDALE     CLEAR     55  52  89 W7        29.61R
CAIRO*         CLEAR     55  50  83 W9        29.62S
EFFINGHAM*     CLOUDY    58  57  95 W10       29.56F
MARION         PTCLDY    57  55  94 NW3       29.61R
MT. VERNON       N/A     56  54  93 W3        29.58S
CENTRALIA*     CLOUDY    57  55  93 NW12      29.58S
SALEM*         CLOUDY    58  54  88 NW10      29.58S
METROPOLIS*    CLOUDY    58  51  76 W8        29.60S
$$

ILZ067-068-072-073-078-083-087-091-250900-
SOUTHEAST ILLINOIS

CITY           SKY/WX    TMP DP  RH WIND       PRES   REMARKS
LAWRENCEVILLE  CLOUDY    59  56  89 NW13      29.51S
FLORA*         CLOUDY    59  56  89 NW12      29.56R
FAIRFIELD*     CLOUDY    57  56  97 CALM      29.55R
HARRISBURG*    CLOUDY    57  55  92 W8        29.58S
ROBINSON*      CLOUDY    57  55  94 NW10      29.51F
CARMI*         CLOUDY    58  56  95 W10       29.55S
$$

ABBREVIATIONS USED IN REMARKS
   TC - TEMPERATURE IN CELSIUS
  WCI - WIND CHILL INDEX
   HX - HEAT INDEX
  VSB - VISIBILITY
$$





USA.gov is the U.S. government's official web portal to all federal, state and local government web resources and services.